Lemoore (Abandoned) Willett A, CO

4:16 PM MST on November 15, 2019 (GMT -0700)
Lemoore (Abandoned) Willett A

Weather History for KLMO - October, 2019

Change the Weather History Date:

Monday, October 21, 2019

  Actual Average (KBJC) Record (KBJC)
Temperature  
Mean Temperature 41 °F -  
Max Temperature 57 °F 60 °F 82 °F (1992)
Min Temperature 25 °F 38 °F 25 °F (1987)
Degree Days  
Heating Degree Days 24    
Moisture  
Dew Point 18 °F    
Average Humidity 44    
Maximum Humidity 71    
Minimum Humidity 16    
Precipitation  
Precipitation 0.00 in - - ()
Sea Level Pressure  
Sea Level Pressure 30.00 in    
Wind  
Wind Speed 5 mph (NNW)    
Max Wind Speed 21 mph    
Max Gust Speed 26 mph    
Visibility 10 miles    
Events      
Averages and records for this station are not official NWS values.
T = Trace of Precipitation, MM = Missing Value Source: NWS Daily Summary

Daily Weather History Graph

Daily Weather History Graph

Search for Another Location

Airport or City:

Astronomy

Oct. 21, 2019 Rise Set
Actual Time 7:17 AM MDT 6:12 PM MDT
Civil Twilight 6:49 AM MDT 6:39 PM MDT
Nautical Twilight 6:18 AM MDT 7:11 PM MDT
Astronomical Twilight 5:46 AM MDT 7:42 PM MDT
Moon No Moon Rise 2:37 PM MDT (10/21)
Length of Visible Light 11h 50m
Length of Day
10h 54m
Waning Gibbous, 47% of the Moon is Illuminated
Oct 21
Waning Gibbous
Oct 27
New
Nov 4
First Quarter
Nov 12
Full
Nov 19
Last Quarter

Hourly Weather History & Observations

Time (MDT) Temp. Windchill Dew Point Humidity Pressure Visibility Wind Dir Wind Speed Gust Speed Precip Events Conditions
12:15 AM 37.4 °F 34.9 °F 18.5 °F 46% 29.92 in 10.0 mi NE 3.5 mph - N/A   Clear
12:35 AM 36.7 °F 32.0 °F 18.5 °F 48% 29.91 in 10.0 mi South 5.8 mph - N/A   Clear
12:55 AM 35.6 °F 30.7 °F 18.3 °F 50% 29.91 in 10.0 mi NW 5.8 mph - N/A   Clear
1:15 AM 33.8 °F - 18.9 °F 54% 29.91 in 10.0 mi Calm Calm - N/A   Clear
1:35 AM 32.2 °F - 18.1 °F 56% 29.92 in 10.0 mi Calm Calm - N/A   Scattered Clouds
1:55 AM 32.0 °F 28.7 °F 20.1 °F 62% 29.91 in 10.0 mi ESE 3.5 mph - N/A   Scattered Clouds
2:15 AM 34.3 °F - 21.6 °F 60% 29.91 in 10.0 mi Calm Calm - N/A   Scattered Clouds
2:35 AM 33.1 °F - 19.6 °F 58% 29.92 in 10.0 mi Calm Calm - N/A   Clear
2:55 AM 34.5 °F 31.6 °F 20.3 °F 56% 29.92 in 10.0 mi SE 3.5 mph - N/A   Clear
3:15 AM 32.9 °F 27.5 °F 19.9 °F 59% 29.91 in 10.0 mi ESE 5.8 mph - N/A   Clear
3:35 AM 33.1 °F 27.7 °F 20.7 °F 60% 29.91 in 10.0 mi ESE 5.8 mph - N/A   Clear
3:55 AM 32.9 °F 29.8 °F 21.6 °F 63% 29.91 in 10.0 mi SE 3.5 mph - N/A   Clear
4:15 AM 34.5 °F 30.4 °F 21.4 °F 59% 29.90 in 10.0 mi ESE 4.6 mph - N/A   Scattered Clouds
4:35 AM 33.8 °F 28.6 °F 19.8 °F 56% 29.90 in 10.0 mi North 5.8 mph - N/A   Scattered Clouds
4:55 AM 32.7 °F 27.3 °F 19.8 °F 59% 29.91 in 10.0 mi North 5.8 mph - N/A   Scattered Clouds
5:15 AM 33.8 °F 30.8 °F 19.8 °F 56% 29.91 in 10.0 mi SW 3.5 mph - N/A   Scattered Clouds
5:35 AM 32.7 °F - 19.6 °F 58% 29.91 in 10.0 mi Calm Calm - N/A   Scattered Clouds
5:55 AM 31.8 °F - 19.8 °F 61% 29.91 in 10.0 mi Calm Calm - N/A   Scattered Clouds
6:15 AM 30.7 °F 27.3 °F 19.4 °F 63% 29.92 in 10.0 mi East 3.5 mph - N/A   Scattered Clouds
6:35 AM 30.9 °F - 20.1 °F 64% 29.92 in 10.0 mi Calm Calm - N/A   Clear
6:55 AM 28.4 °F 24.6 °F 18.1 °F 65% 29.93 in 10.0 mi NNW 3.5 mph - N/A   Clear
7:15 AM 27.1 °F - 17.6 °F 67% 29.93 in 10.0 mi Calm Calm - N/A   Clear
7:35 AM 25.9 °F 16.6 °F 17.1 °F 69% 29.95 in 10.0 mi WNW 9.2 mph - N/A   Clear
7:55 AM 28.0 °F - 19.4 °F 70% 29.95 in 10.0 mi Calm Calm - N/A   Clear
8:15 AM 32.0 °F 26.4 °F 22.1 °F 67% 29.96 in 10.0 mi North 5.8 mph - N/A   Clear
8:35 AM 35.8 °F - 22.3 °F 58% 29.97 in 10.0 mi Calm Calm - N/A   Clear
8:55 AM 39.7 °F - 21.4 °F 48% 29.97 in 10.0 mi Calm Calm - N/A   Clear
9:15 AM 42.6 °F 40.9 °F 20.1 °F 41% 29.97 in 10.0 mi SSE 3.5 mph - N/A   Scattered Clouds
9:35 AM 45.5 °F - 17.8 °F 33% 29.98 in 10.0 mi Calm Calm - N/A   Scattered Clouds
9:55 AM 47.7 °F - 16.9 °F 29% 29.97 in 10.0 mi ENE 4.6 mph - N/A   Mostly Cloudy
10:15 AM 49.6 °F - 16.0 °F 26% 29.98 in 10.0 mi Calm Calm - N/A   Mostly Cloudy
10:35 AM 49.8 °F - 15.8 °F 26% 29.97 in 10.0 mi ESE 4.6 mph - N/A   Mostly Cloudy
10:55 AM 52.3 °F - 15.4 °F 23% 29.97 in 10.0 mi ENE 4.6 mph - N/A   Mostly Cloudy
11:15 AM 50.4 °F - 12.9 °F 22% 29.97 in 10.0 mi Calm Calm - N/A   Scattered Clouds
11:35 AM 51.8 °F - 12.4 °F 21% 29.97 in 10.0 mi East 3.5 mph - N/A   Scattered Clouds
11:55 AM 51.8 °F - 11.7 °F 20% 29.97 in 10.0 mi SE 4.6 mph - N/A   Mostly Cloudy
12:15 PM 54.0 °F - 10.2 °F 17% 29.97 in 10.0 mi NNW 12.7 mph 25.3 mph N/A   Mostly Cloudy
12:35 PM 55.9 °F - 10.4 °F 16% 29.96 in 10.0 mi WNW 11.5 mph 19.6 mph N/A   Overcast
12:55 PM 55.9 °F - 10.2 °F 16% 29.97 in 10.0 mi NW 13.8 mph 23.0 mph N/A   Mostly Cloudy
1:15 PM 57.0 °F - 10.9 °F 16% 29.96 in 10.0 mi NNW 16.1 mph 19.6 mph N/A   Mostly Cloudy
1:35 PM 57.4 °F - 10.4 °F 16% 29.96 in 10.0 mi WNW 13.8 mph 21.9 mph N/A   Scattered Clouds
1:55 PM 56.3 °F - 10.9 °F 17% 29.96 in 10.0 mi NW 12.7 mph 17.3 mph N/A   Mostly Cloudy
2:15 PM 55.4 °F - 11.7 °F 18% 29.97 in 10.0 mi West 11.5 mph 19.6 mph N/A   Overcast
2:35 PM 54.3 °F - 13.3 °F 20% 29.97 in 10.0 mi NW 13.8 mph - N/A   Mostly Cloudy
2:55 PM 54.5 °F - 12.6 °F 19% 29.97 in 10.0 mi NW 6.9 mph 18.4 mph N/A   Mostly Cloudy
3:15 PM 57.2 °F - 12.4 °F 17% 29.98 in 10.0 mi NNW 10.4 mph - N/A   Mostly Cloudy
3:35 PM 55.2 °F - 12.0 °F 18% 29.99 in 10.0 mi WNW 9.2 mph 18.4 mph N/A   Overcast
3:55 PM 57.9 °F - 11.8 °F 16% 30.00 in 10.0 mi NW 20.7 mph 26.5 mph N/A   Mostly Cloudy
4:15 PM 57.9 °F - 11.7 °F 16% 30.01 in 10.0 mi NW 18.4 mph 24.2 mph N/A   Scattered Clouds
4:35 PM 57.0 °F - 12.0 °F 17% 30.02 in 10.0 mi NW 13.8 mph 23.0 mph N/A   Scattered Clouds
4:55 PM 55.9 °F - 13.3 °F 19% 30.03 in 10.0 mi NW 13.8 mph 21.9 mph N/A   Scattered Clouds
5:15 PM 54.9 °F - 13.8 °F 20% 30.04 in 10.0 mi NW 11.5 mph 18.4 mph N/A   Scattered Clouds
5:35 PM 51.8 °F - 15.3 °F 23% 30.06 in 10.0 mi WNW 9.2 mph - N/A   Scattered Clouds
5:55 PM 49.5 °F - 16.3 °F 27% 30.06 in 10.0 mi WNW 11.5 mph - N/A   Clear
6:15 PM 48.2 °F - 16.7 °F 29% 30.08 in 10.0 mi NW 5.8 mph - N/A   Clear
6:35 PM 46.2 °F 43.3 °F 16.5 °F 31% 30.09 in 10.0 mi West 5.8 mph - N/A   Clear
6:55 PM 42.8 °F 41.1 °F 16.5 °F 35% 30.09 in 10.0 mi NNW 3.5 mph - N/A   Clear
7:15 PM 44.1 °F 41.5 °F 17.4 °F 34% 30.10 in 10.0 mi North 4.6 mph - N/A   Clear
7:35 PM 44.1 °F 40.8 °F 22.3 °F 42% 30.11 in 10.0 mi North 5.8 mph - N/A   Clear
7:55 PM 41.9 °F - 24.1 °F 49% 30.12 in 10.0 mi Calm Calm - N/A   Scattered Clouds
8:15 PM 41.4 °F - 26.4 °F 55% 30.12 in 10.0 mi Calm Calm - N/A   Scattered Clouds
8:35 PM 40.3 °F - 27.0 °F 59% 30.13 in 10.0 mi Calm Calm - N/A   Clear
8:55 PM 39.4 °F 36.1 °F 26.6 °F 60% 30.14 in 10.0 mi East 4.6 mph - N/A   Clear
9:15 PM 39.0 °F - 27.3 °F 63% 30.14 in 10.0 mi Calm Calm - N/A   Clear
9:35 PM 35.4 °F - 24.8 °F 65% 30.15 in 10.0 mi Calm Calm - N/A   Clear
9:55 PM 34.5 °F 30.4 °F 25.3 °F 69% 30.16 in 10.0 mi West 4.6 mph - N/A   Scattered Clouds
10:15 PM 33.8 °F - 24.8 °F 70% 30.17 in 10.0 mi Calm Calm - N/A   Clear
10:35 PM 35.6 °F 32.8 °F 26.2 °F 69% 30.17 in 10.0 mi WNW 3.5 mph - N/A   Scattered Clouds
10:55 PM 35.1 °F 32.2 °F 26.6 °F 71% 30.17 in 10.0 mi NW 3.5 mph - N/A   Scattered Clouds
11:15 PM 35.8 °F 33.0 °F 25.5 °F 66% 30.17 in 10.0 mi West 3.5 mph - N/A   Clear
11:55 PM 34.0 °F 29.8 °F 25.0 °F 70% 30.18 in 10.0 mi SW 4.6 mph - N/A   Scattered Clouds